Hourly Weather Domaniew

Today, 15 July, Wednesday

Time Temperature Precipitation Wind Pressure Humidity
00:00 +16°C° 0 mm 2 mps 748 mmHg 73%
01:00 +16°C° 0 mm 3 mps 748 mmHg 69%
02:00 +14°C° 0 mm 3 mps 748 mmHg 71%
03:00 +14°C° 0 mm 3 mps 748 mmHg 73%
04:00 +14°C° 0 mm 3 mps 748 mmHg 75%
05:00 +16°C° 0 mm 3 mps 748 mmHg 74%
06:00 +17°C° 0 mm 3 mps 748 mmHg 72%
07:00 +19°C° 0 mm 3 mps 748 mmHg 69%
08:00 +21°C° 0 mm 3 mps 747 mmHg 63%
09:00 +22°C° 0 mm 4 mps 747 mmHg 57%
10:00 +25°C° 0 mm 4 mps 747 mmHg 52%
11:00 +25°C° 0 mm 4 mps 747 mmHg 50%
12:00 +26°C° 0 mm 4 mps 747 mmHg 48%
13:00 +26°C° 0 mm 4 mps 746 mmHg 47%
14:00 +26°C° 0 mm 3 mps 746 mmHg 49%
15:00 +26°C° 0 mm 3 mps 746 mmHg 51%
16:00 +25°C° 0 mm 3 mps 746 mmHg 54%
17:00 +24°C° 0 mm 3 mps 746 mmHg 57%
18:00 +22°C° 0 mm 3 mps 746 mmHg 61%
19:00 +21°C° 0 mm 3 mps 745 mmHg 65%
20:00 +20°C° 0 mm 3 mps 746 mmHg 67%
21:00 +19°C° 0 mm 3 mps 746 mmHg 70%
22:00 +19°C° 0 mm 3 mps 746 mmHg 72%
23:00 +18°C° 0 mm 3 mps 746 mmHg 76%

Tomorrow, 16 July, Thursday

Time Temperature Precipitation Wind Pressure Humidity
00:00 +17°C° 0 mm 3 mps 746 mmHg 79%
01:00 +16°C° 0 mm 3 mps 746 mmHg 83%
02:00 +16°C° 0.2 mm 3 mps 746 mmHg 87%
03:00 +15°C° 0.2 mm 2 mps 745 mmHg 91%
04:00 +15°C° 0.2 mm 2 mps 745 mmHg 95%
05:00 +15°C° 1 mm 2 mps 745 mmHg 95%
06:00 +16°C° 1 mm 2 mps 746 mmHg 95%
07:00 +16°C° 1 mm 2 mps 746 mmHg 95%
08:00 +16°C° 0.6 mm 3 mps 746 mmHg 92%
09:00 +17°C° 0.6 mm 4 mps 746 mmHg 90%
10:00 +16°C° 0.6 mm 5 mps 747 mmHg 87%
11:00 +18°C° 0.2 mm 4 mps 747 mmHg 81%
12:00 +19°C° 0.2 mm 4 mps 747 mmHg 75%
13:00 +21°C° 0.2 mm 4 mps 747 mmHg 68%
14:00 +21°C° 0.2 mm 4 mps 746 mmHg 67%
15:00 +21°C° 0.2 mm 4 mps 746 mmHg 65%
16:00 +21°C° 0.2 mm 4 mps 746 mmHg 64%
17:00 +20°C° 0.3 mm 3 mps 746 mmHg 69%
18:00 +19°C° 0.3 mm 2 mps 746 mmHg 74%
19:00 +18°C° 0.3 mm 2 mps 747 mmHg 80%
20:00 +18°C° 0.1 mm 1 mps 747 mmHg 82%
21:00 +16°C° 0.1 mm 1 mps 747 mmHg 84%
22:00 +15°C° 0.1 mm 1 mps 747 mmHg 86%
23:00 +15°C° 0 mm 1 mps 747 mmHg 88%

Day after tomorrow, 17 July, Friday

Time Temperature Precipitation Wind Pressure Humidity
00:00 +14°C° 0 mm 1 mps 747 mmHg 89%
01:00 +14°C° 0 mm 1 mps 747 mmHg 91%
02:00 +13°C° 0 mm 2 mps 747 mmHg 92%
03:00 +13°C° 0 mm 2 mps 748 mmHg 93%
04:00 +13°C° 0 mm 2 mps 748 mmHg 95%
05:00 +14°C° 0 mm 2 mps 748 mmHg 92%
06:00 +15°C° 0 mm 2 mps 748 mmHg 89%
07:00 +17°C° 0 mm 3 mps 749 mmHg 86%
08:00 +18°C° 0.1 mm 3 mps 749 mmHg 80%
09:00 +19°C° 0.1 mm 3 mps 749 mmHg 75%
10:00 +20°C° 0.1 mm 3 mps 749 mmHg 69%
11:00 +21°C° 0.1 mm 3 mps 749 mmHg 65%
12:00 +21°C° 0.1 mm 3 mps 749 mmHg 62%
13:00 +22°C° 0.1 mm 3 mps 749 mmHg 58%
14:00 +22°C° 0 mm 3 mps 749 mmHg 58%
15:00 +23°C° 0 mm 2 mps 748 mmHg 57%
16:00 +23°C° 0 mm 2 mps 748 mmHg 57%
17:00 +21°C° 0.1 mm 2 mps 748 mmHg 63%
18:00 +21°C° 0.1 mm 2 mps 748 mmHg 69%
19:00 +20°C° 0.1 mm 2 mps 748 mmHg 75%
20:00 +20°C° 0.1 mm 1 mps 749 mmHg 77%
21:00 +19°C° 0.1 mm 1 mps 749 mmHg 79%
22:00 +18°C° 0.1 mm 1 mps 749 mmHg 81%
23:00 +18°C° 0.1 mm 1 mps 749 mmHg 83%

18 July, Saturday

Time Temperature Precipitation Wind Pressure Humidity
00:00 +18°C° 0.1 mm 1 mps 749 mmHg 85%
01:00 +16°C° 0.1 mm 1 mps 749 mmHg 87%
02:00 +16°C° 0.1 mm 1 mps 749 mmHg 88%
03:00 +16°C° 0.1 mm 1 mps 748 mmHg 89%
04:00 +16°C° 0.1 mm 2 mps 748 mmHg 90%
05:00 +17°C° 0.1 mm 2 mps 748 mmHg 89%
06:00 +18°C° 0.1 mm 3 mps 748 mmHg 88%
07:00 +19°C° 0.1 mm 3 mps 749 mmHg 86%
08:00 +19°C° 0.1 mm 4 mps 749 mmHg 83%
09:00 +20°C° 0.1 mm 4 mps 749 mmHg 80%
10:00 +21°C° 0.1 mm 4 mps 749 mmHg 77%
11:00 +21°C° 0 mm 3 mps 748 mmHg 75%
12:00 +22°C° 0 mm 3 mps 748 mmHg 73%
13:00 +22°C° 0 mm 3 mps 748 mmHg 71%
14:00 +22°C° 0.1 mm 3 mps 748 mmHg 72%
15:00 +21°C° 0.1 mm 3 mps 748 mmHg 73%
16:00 +21°C° 0.1 mm 2 mps 748 mmHg 73%
17:00 +21°C° 0.1 mm 2 mps 748 mmHg 76%
18:00 +20°C° 0.1 mm 2 mps 748 mmHg 78%
19:00 +21°C° 0.1 mm 1 mps 748 mmHg 81%
20:00 +20°C° 0 mm 1 mps 748 mmHg 83%
21:00 +19°C° 0 mm 1 mps 749 mmHg 86%
22:00 +18°C° 0 mm 1 mps 749 mmHg 88%
23:00 +18°C° 0 mm 1 mps 749 mmHg 89%

19 July, Sunday

Time Temperature Precipitation Wind Pressure Humidity
00:00 +16°C° 0 mm 1 mps 749 mmHg 90%
01:00 +16°C° 0 mm 1 mps 749 mmHg 91%
02:00 +16°C° 0 mm 1 mps 749 mmHg 91%
03:00 +16°C° 0 mm 1 mps 749 mmHg 90%
04:00 +16°C° 0 mm 1 mps 749 mmHg 89%
05:00 +18°C° 0 mm 1 mps 749 mmHg 86%
06:00 +17°C° 0 mm 0 mps 749 mmHg 83%
07:00 +18°C° 0 mm 0 mps 749 mmHg 80%
08:00 +22°C° 0 mm 1 mps 749 mmHg 76%
09:00 +23°C° 0 mm 1 mps 749 mmHg 71%
10:00 +25°C° 0 mm 1 mps 749 mmHg 67%
11:00 +26°C° 0 mm 1 mps 748 mmHg 63%
12:00 +27°C° 0 mm 1 mps 748 mmHg 58%
13:00 +28°C° 0 mm 1 mps 748 mmHg 54%
14:00 +28°C° 0 mm 1 mps 748 mmHg 53%
15:00 +28°C° 0 mm 1 mps 747 mmHg 52%
16:00 +28°C° 0 mm 1 mps 747 mmHg 51%
17:00 +27°C° 0 mm 1 mps 747 mmHg 56%
18:00 +26°C° 0 mm 1 mps 747 mmHg 62%
19:00 +25°C° 0 mm 1 mps 747 mmHg 67%
20:00 +24°C° 0.1 mm 1 mps 747 mmHg 70%
21:00 +23°C° 0.1 mm 1 mps 747 mmHg 73%
22:00 +22°C° 0.1 mm 1 mps 747 mmHg 76%
23:00 +21°C° 0.5 mm 1 mps 747 mmHg 79%

20 July, Monday

Time Temperature Precipitation Wind Pressure Humidity
00:00 +20°C° 0.5 mm 2 mps 747 mmHg 82%
01:00 +19°C° 0.5 mm 2 mps 747 mmHg 84%
02:00 +19°C° 0.3 mm 2 mps 747 mmHg 85%
03:00 +19°C° 0.3 mm 2 mps 747 mmHg 85%
04:00 +18°C° 0.3 mm 2 mps 747 mmHg 85%
05:00 +20°C° 0.1 mm 1 mps 747 mmHg 82%
06:00 +21°C° 0.1 mm 1 mps 747 mmHg 78%
07:00 +22°C° 0.1 mm 1 mps 747 mmHg 74%
08:00 +23°C° 0 mm 1 mps 747 mmHg 70%
09:00 +25°C° 0 mm 1 mps 747 mmHg 66%
10:00 +26°C° 0 mm 2 mps 747 mmHg 62%
11:00 +27°C° 0 mm 2 mps 746 mmHg 58%
12:00 +27°C° 0 mm 2 mps 746 mmHg 55%
13:00 +28°C° 0 mm 2 mps 746 mmHg 52%
14:00 +28°C° 0.5 mm 2 mps 746 mmHg 54%
15:00 +28°C° 0.5 mm 2 mps 746 mmHg 57%
16:00 +27°C° 0.5 mm 2 mps 745 mmHg 59%
17:00 +26°C° 0.8 mm 2 mps 745 mmHg 66%
18:00 +25°C° 0.8 mm 2 mps 746 mmHg 73%
19:00 +22°C° 0.8 mm 3 mps 746 mmHg 80%
20:00 +21°C° 0.1 mm 3 mps 746 mmHg 84%
21:00 +20°C° 0.1 mm 3 mps 746 mmHg 88%
22:00 +19°C° 0.1 mm 3 mps 746 mmHg 91%
23:00 +19°C° 0.5 mm 4 mps 746 mmHg 92%
Show more